Lid_Strength_Index
-0 1 3 5 10 12 13 12 11 10 10 8 7 7 9 7 10 12 2 0 0 -0 -1 -1 -1 -2 -1 -1 -2 -2 -1 -1 -2 -2 -2 -2 -2 -2 -2 -2 -3 -2 -2 -2 -2 -2 -2 -2 -2
1 2 5 8 12 15 15 12 10 9 8 7 6 7 8 10 5 4 3 0 -0 -0 -1 -1 -1 -1 -1 -1 -2 -2 -2 -2 -2 -2 -2 -2 -2 -2 -3 -2 -2 -2 -2 -2 -2 -2 -2 -2 -2
3 3 7 10 13 14 14 11 10 8 7 8 9 6 7 8 4 4 1 0 -0 -0 -0 -1 -1 -1 -2 -2 -2 -2 -2 -2 -2 -2 -2 -2 -2 -2 -3 -2 -2 -2 -2 -2 -2 -2 -2 -2 -2
6 6 8 12 14 12 12 9 8 8 8 6 7 9 6 3 3 2 0 -0 0 -0 -0 -0 -1 -2 -2 -1 -2 -2 -2 -2 -3 -3 -3 -2 -2 -3 -3 -3 -3 -3 -2 -2 -2 -2 -1 -1 -1
5 7 11 12 13 12 10 7 7 8 8 8 7 10 8 4 2 1 1 0 1 0 -0 -0 -1 -1 -1 -1 -1 -2 -2 -2 -2 -3 -3 -3 -2 -3 -3 -3 -3 -3 -2 -2 -2 -1 -1 -1 -1
8 9 13 14 13 11 10 7 7 8 9 8 8 8 8 3 2 2 1 0 -0 0 -0 -0 0 -0 -1 -1 -2 -2 -2 -2 -2 -2 -3 -3 -2 -2 -2 -3 -3 -2 -2 -2 -2 -1 -1 -1 -1
8 10 13 13 11 11 9 8 8 8 8 8 5 9 7 4 3 2 1 1 1 0 -0 -0 -0 -0 0 -1 -1 -2 -2 -2 -2 -2 -2 -2 -2 -2 -2 -2 -3 -2 -2 -2 -2 -1 -1 -1 -1
8 9 13 13 12 11 9 8 8 7 8 5 4 9 9 4 2 2 1 1 1 0 -0 0 0 -0 -0 0 1 -0 -1 -1 -1 -1 -1 -1 -1 -2 -1 -1 -2 -3 -3 -3 -2 -2 -1 -1 -1
8 11 13 13 11 10 9 8 7 6 7 6 6 5 4 3 2 2 2 2 1 1 0 0 0 0 0 0 0 1 0 0 -0 -0 1 1 0 -0 -0 -0 -1 -2 -2 -2 -2 -2 -2 -2 -1
11 13 11 10 9 10 9 8 8 8 8 8 7 4 3 3 3 4 4 3 3 2 2 0 0 1 1 -0 0 0 -0 0 0 0 1 0 1 1 -0 1 -0 -1 -1 -2 -2 -2 -2 -1 1
11 13 11 10 8 7 9 9 8 8 10 7 7 6 4 4 4 4 3 3 3 2 1 1 1 1 1 0 1 1 1 1 1 1 0 0 0 1 1 2 1 1 1 1 -0 0 1 1 1
12 10 11 9 7 7 8 7 9 8 8 6 5 4 4 4 4 4 4 3 3 3 2 1 1 1 1 1 1 1 2 2 1 1 1 1 1 2 2 2 2 2 1 2 2 2 2 2 1
11 11 10 9 8 8 8 9 9 8 7 6 4 4 5 4 4 3 3 3 3 2 2 2 1 1 1 1 1 1 1 2 1 2 1 1 2 2 2 2 3 3 2 2 3 2 2 2 2
9 9 11 10 9 8 10 10 9 8 6 5 5 5 5 4 4 4 4 3 3 2 2 2 2 1 1 1 1 0 0 0 1 1 2 1 2 2 3 3 4 4 4 4 4 4 4 4 4
8 11 10 10 9 8 7 12 11 8 8 6 6 5 5 4 4 4 3 3 3 2 2 2 1 1 2 1 1 1 0 0 0 -0 0 1 1 2 2 2 3 3 3 3 4 4 4 4 4
11 11 14 11 9 8 8 12 9 8 10 10 8 8 6 5 4 3 3 3 3 2 2 1 1 1 1 1 1 1 1 0 -0 1 0 0 1 1 2 2 2 2 3 4 4 4 4 4 4
13 17 15 13 10 9 9 12 9 9 9 10 11 10 8 7 7 5 4 3 3 2 2 2 1 2 2 1 1 1 1 1 0 -0 1 1 0 1 1 2 3 3 3 3 3 3 4 4 5
17 16 15 15 13 10 11 12 10 10 11 11 11 12 11 10 7 5 5 4 3 3 2 2 1 1 1 1 2 2 2 1 1 1 1 0 0 2 2 2 2 2 3 4 4 4 4 4 4
14 15 17 16 13 13 13 12 10 10 11 11 11 11 11 10 9 8 8 5 5 5 4 3 3 2 2 2 2 2 2 2 1 1 1 1 1 0 1 1 2 2 2 3 4 4 5 5 4
14 17 19 16 13 14 15 14 12 13 12 12 12 12 11 11 10 8 7 6 4 5 5 6 4 3 1 2 2 2 2 2 1 1 1 1 2 1 0 0 1 1 1 2 2 2 3 3 3
14 16 17 17 16 16 17 18 16 14 13 12 12 11 11 10 9 8 8 7 7 7 6 6 6 4 2 2 3 4 3 4 3 3 2 2 2 1 1 1 0 1 1 1 2 2 3 3 3
14 12 12 13 15 19 17 23 19 17 16 14 12 13 10 9 8 8 8 9 8 7 6 5 5 6 5 5 4 4 3 3 3 3 2 2 2 2 2 1 0 0 1 1 1 1 2 2 3
13 11 11 12 15 16 18 21 19 17 17 15 14 12 10 9 9 8 8 8 7 6 6 5 4 4 4 4 4 4 3 3 3 3 3 3 3 3 2 1 0 1 1 1 1 2 2 2 2
11 12 12 13 14 19 17 18 21 17 16 14 13 12 11 10 11 10 9 6 6 5 5 5 5 6 6 5 4 4 4 3 3 3 4 5 7 7 6 6 5 5 4 3 2 1 2 2 2
11 14 21 22 23 21 17 18 18 15 14 13 13 13 12 11 10 9 7 7 7 7 7 7 7 8 8 7 7 7 6 4 4 5 6 8 9 9 9 8 7 7 7 6 5 6 6 6 4
12 13 18 23 23 20 16 19 17 12 11 10 11 12 11 11 9 9 8 8 8 8 9 9 9 10 10 9 10 9 9 9 9 10 10 11 11 11 10 9 9 9 8 8 7 7 7 8 7
13 14 12 15 18 20 18 17 15 13 12 12 12 12 12 12 10 9 9 9 10 10 10 11 11 11 11 11 11 11 11 11 11 11 11 11 11 11 11 10 10 10 10 9 9 10 9 9 9
10 10 15 16 25 26 19 19 18 16 14 13 12 12 11 11 10 10 11 11 12 11 12 12 12 12 12 12 12 12 12 11 11 11 12 12 12 11 11 11 12 12 11 11 10 11 11 10 11
12 13 13 13 16 20 22 20 16 14 12 12 12 12 11 10 10 11 12 12 13 13 13 13 13 13 14 14 14 14 14 14 13 13 13 13 13 12 12 12 12 13 13 12 12 12 12 12 12
9 12 12 16 17 16 17 19 14 14 13 12 12 12 10 10 11 12 13 13 14 14 14 14 14 14 15 15 15 15 15 15 15 15 15 14 15 14 14 13 13 13 14 13 13 14 13 13 13